EW3591 Weather Reports


Display with metric or nautical units.
time (UTC)temp
F
wind
direction
speed
MPH
gust
MPH
rain 1hr
in
rain 24hr
in
rain mn
in
humidity
%
barometer
mb
20260906190624 75 358 3.0 7.0 0.00 0.00 0.00 72 1019.4
20260906190424 75 13 3.0 7.0 0.00 0.00 0.00 71 1019.4
20260906190223 75 2 1.0 6.0 0.00 0.00 0.00 72 1019.4
20260906190023 75 8 2.0 6.0 0.00 0.00 0.00 72 1019.4
20260906185823 75 21 2.0 6.0 0.00 0.00 0.00 72 1019.4
20260906185622 75 40 2.0 6.0 0.00 0.00 0.00 71 1019.4
20260906185422 75 16 2.0 6.0 0.00 0.00 0.00 71 1019.5
20260906185222 75 357 2.0 9.0 0.00 0.00 0.00 71 1019.4
20260906185022 75 6 1.0 9.0 0.00 0.00 0.00 72 1019.5
20260906184821 75 8 2.0 9.0 0.00 0.00 0.00 73 1019.5
20260906184621 74 20 2.0 9.0 0.00 0.00 0.00 72 1019.5
20260906184421 74 31 3.0 9.0 0.00 0.00 0.00 72 1019.5
20260906184220 75 34 4.0 9.0 0.00 0.00 0.00 71 1019.6
20260906184020 75 39 3.0 8.0 0.00 0.00 0.00 70 1019.7
20260906183820 75 40 2.0 8.0 0.00 0.00 0.00 70 1019.6
20260906183619 75 32 3.0 7.0 0.00 0.00 0.00 71 1019.5
20260906183419 75 34 2.0 7.0 0.00 0.00 0.00 71 1019.6
20260906183219 75 19 3.0 6.0 0.00 0.00 0.00 72 1019.5
20260906183018 75 26 3.0 7.0 0.00 0.00 0.00 71 1019.6
20260906182818 75 27 2.0 7.0 0.00 0.00 0.00 71 1019.6
20260906182618 74 36 2.0 7.0 0.00 0.00 0.00 71 1019.5
20260906182417 74 48 3.0 7.0 0.00 0.00 0.00 71 1019.6
20260906182217 74 31 3.0 7.0 0.00 0.00 0.00 71 1019.6
20260906182017 75 13 2.0 8.0 0.00 0.00 0.00 70 1019.6
20260906181817 75 22 1.0 8.0 0.00 0.00 0.00 72 1019.6
20260906181616 74 37 3.0 8.0 0.00 0.00 0.00 72 1019.7
20260906181416 74 52 3.0 8.0 0.00 0.00 0.00 71 1019.6
20260906181216 74 28 2.0 8.0 0.00 0.00 0.00 72 1019.6
20260906181015 74 33 2.0 5.0 0.00 0.00 0.00 71 1019.7
20260906180815 75 3 1.0 5.0 0.00 0.00 0.00 71 1019.8
20260906180615 74 31 1.0 6.0 0.00 0.00 0.00 72 1019.7
20260906180414 74 12 2.0 6.0 0.00 0.00 0.00 73 1019.8
20260906180214 74 16 2.0 6.0 0.00 0.00 0.00 74 1019.8
20260906180014 73 19 2.0 7.0 0.00 0.00 0.00 73 1019.7
20260906175813 73 9 2.0 7.0 0.00 0.00 0.00 74 1019.8
20260906175613 73 12 2.0 7.0 0.00 0.00 0.00 76 1019.8
20260906175413 73 28 3.0 7.0 0.00 0.00 0.00 75 1019.8
20260906175213 73 33 3.0 7.0 0.00 0.00 0.00 75 1019.8
20260906175012 74 36 4.0 7.0 0.00 0.00 0.00 74 1019.8
20260906174812 74 25 3.0 6.0 0.00 0.00 0.00 74 1019.8
20260906174612 74 12 2.0 7.0 0.00 0.00 0.00 75 1019.7
20260906174411 74 25 2.0 8.0 0.00 0.00 0.00 75 1019.7
20260906174211 74 11 2.0 8.0 0.00 0.00 0.00 75 1019.7
20260906174011 73 351 2.0 8.0 0.00 0.00 0.00 76 1019.7
20260906173810 73 21 3.0 8.0 0.00 0.00 0.00 76 1019.7
20260906173610 74 30 3.0 6.0 0.00 0.00 0.00 76 1019.7
20260906173410 74 9 3.0 6.0 0.00 0.00 0.00 75 1019.7
20260906173209 74 358 2.0 6.0 0.00 0.00 0.00 75 1019.7
20260906173009 75 19 3.0 7.0 0.00 0.00 0.00 75 1019.7
20260906172809 75 56 3.0 7.0 0.00 0.00 0.00 73 1019.7
20260906172608 76 55 3.0 9.0 0.00 0.00 0.00 72 1019.7
20260906172408 76 49 3.0 9.0 0.00 0.00 0.00 73 1019.7
20260906172208 76 27 3.0 9.0 0.00 0.00 0.00 72 1019.6
20260906172008 76 44 4.0 9.0 0.00 0.00 0.00 73 1019.7
20260906171807 76 48 4.0 9.0 0.00 0.00 0.00 72 1019.7
20260906171607 77 24 4.0 9.0 0.00 0.00 0.00 71 1019.8
20260906171407 77 11 3.0 8.0 0.00 0.00 0.00 72 1019.8
20260906171206 77 356 2.0 8.0 0.00 0.00 0.00 73 1019.7
20260906171006 76 39 2.0 8.0 0.00 0.00 0.00 73 1019.7
20260906170806 76 16 3.0 8.0 0.00 0.00 0.00 72 1019.8
20260906170605 76 354 2.0 8.0 0.00 0.00 0.00 72 1019.9
20260906170405 76 332 1.0 5.0 0.00 0.00 0.00 73 1019.8
20260906170205 76 13 1.0 5.0 0.00 0.00 0.00 74 1019.9
20260906170004 76 17 2.0 5.0 0.00 0.00 0.00 74 1019.9
20260906165804 76 9 2.0 5.0 0.00 0.00 0.00 74 1019.9
20260906165604 76 10 2.0 5.0 0.00 0.00 0.00 73 1019.9
20260906165404 75 12 1.0 6.0 0.00 0.00 0.00 74 1019.9
20260906165203 75 354 1.0 6.0 0.00 0.00 0.00 75 1019.9
20260906165003 74 353 1.0 6.0 0.00 0.00 0.00 76 1019.9
20260906164803 74 356 2.0 6.0 0.00 0.00 0.00 77 1019.9
20260906164602 74 22 2.0 6.0 0.00 0.00 0.00 76 1019.9
20260906164402 73 355 2.0 7.0 0.00 0.00 0.00 77 1019.8
20260906164202 73 22 2.0 8.0 0.00 0.00 0.00 78 1019.9
20260906164001 72 36 3.0 8.0 0.00 0.00 0.00 80 1019.8
20260906163801 72 31 2.0 8.0 0.00 0.00 0.00 79 1019.8
20260906163601 71 38 3.0 8.0 0.00 0.00 0.00 83 1019.9
20260906163400 70 41 3.0 8.0 0.00 0.00 0.00 84 1019.9
20260906163200 69 28 3.0 10.0 0.00 0.00 0.00 85 1019.9
20260906163000 69 34 3.0 10.0 0.00 0.00 0.00 85 1019.9
20260906162759 69 32 2.0 10.0 0.00 0.00 0.00 85 1019.9
20260906162559 69 30 4.0 10.0 0.00 0.00 0.00 85 1019.9
20260906162359 69 29 4.0 10.0 0.00 0.00 0.00 85 1020.0
20260906162159 69 32 3.0 9.0 0.00 0.00 0.00 84 1019.9
20260906161958 69 23 4.0 9.0 0.00 0.00 0.00 84 1020.0
20260906161758 69 41 4.0 8.0 0.00 0.00 0.00 84 1020.0
20260906161558 70 54 3.0 8.0 0.00 0.00 0.00 83 1019.9
20260906161357 70 50 3.0 8.0 0.00 0.00 0.00 83 1020.0
20260906161157 70 52 3.0 8.0 0.00 0.00 0.00 82 1020.0
20260906160957 70 42 3.0 8.0 0.00 0.00 0.00 82 1020.0
20260906160756 70 41 3.0 8.0 0.00 0.00 0.00 82 1020.1
20260906160556 70 27 3.0 8.0 0.00 0.00 0.00 82 1020.0
20260906160356 71 36 3.0 7.0 0.00 0.00 0.00 81 1020.1
20260906160155 71 44 2.0 7.0 0.00 0.00 0.00 82 1020.1
20260906155955 71 36 2.0 7.0 0.00 0.00 0.00 82 1020.0
20260906155755 71 34 2.0 8.0 0.00 0.00 0.00 82 1020.0
20260906155554 70 14 2.0 9.0 0.00 0.00 0.00 83 1020.0
20260906155354 70 38 3.0 9.0 0.00 0.00 0.00 83 1020.0
20260906155154 70 50 3.0 9.0 0.00 0.00 0.00 83 1020.0
20260906154954 70 39 4.0 9.0 0.00 0.00 0.00 82 1019.9
20260906154753 70 31 4.0 9.0 0.00 0.00 0.00 82 1020.0
20260906154553 71 30 3.0 9.0 0.00 0.00 0.00 81 1020.0
20260906154353 71 36 3.0 9.0 0.00 0.00 0.00 82 1020.0
20260906154152 71 31 3.0 9.0 0.00 0.00 0.00 81 1019.9
20260906153952 71 46 3.0 9.0 0.00 0.00 0.00 81 1019.9
20260906153752 72 54 3.0 9.0 0.00 0.00 0.00 80 1020.0
20260906153551 72 45 2.0 7.0 0.00 0.00 0.00 81 1020.0
20260906153351 72 14 3.0 7.0 0.00 0.00 0.00 82 1019.9
20260906153151 71 12 3.0 7.0 0.00 0.00 0.00 82 1019.8
20260906152950 71 44 3.0 8.0 0.00 0.00 0.00 82 1019.8
20260906152750 71 35 3.0 9.0 0.00 0.00 0.00 83 1019.9
20260906152550 71 44 2.0 9.0 0.00 0.00 0.00 84 1019.8
20260906152350 70 14 3.0 9.0 0.00 0.00 0.00 84 1019.8
20260906152149 70 30 3.0 9.0 0.00 0.00 0.00 84 1019.7
20260906151949 70 24 3.0 9.0 0.00 0.00 0.00 84 1019.7
20260906151749 70 28 3.0 9.0 0.00 0.00 0.00 84 1019.7
20260906151548 70 40 4.0 8.0 0.00 0.00 0.00 84 1019.6
20260906151348 70 29 3.0 8.0 0.00 0.00 0.00 84 1019.7
20260906151148 70 17 2.0 8.0 0.00 0.00 0.00 84 1019.6
20260906150947 70 34 3.0 8.0 0.00 0.00 0.00 83 1019.6
20260906150747 70 53 3.0 8.0 0.00 0.00 0.00 82 1019.6
20260906150547 71 53 3.0 8.0 0.00 0.00 0.00 83 1019.6
20260906150346 70 34 3.0 10.0 0.00 0.00 0.00 83 1019.6
20260906150146 70 36 3.0 10.0 0.00 0.00 0.00 84 1019.5
20260906145946 70 43 3.0 10.0 0.00 0.00 0.00 84 1019.4
20260906145745 70 46 4.0 10.0 0.00 0.00 0.00 84 1019.5
20260906145545 70 45 4.0 10.0 0.00 0.00 0.00 84 1019.4
20260906145345 70 31 2.0 7.0 0.00 0.00 0.00 83 1019.5
20260906145144 70 29 2.0 7.0 0.00 0.00 0.00 84 1019.7
20260906144944 70 37 3.0 7.0 0.00 0.00 0.00 85 1019.6
20260906144744 69 50 3.0 7.0 0.00 0.00 0.00 85 1019.6
20260906144544 69 55 3.0 7.0 0.00 0.00 0.00 84 1019.6
20260906144343 69 48 3.0 7.0 0.00 0.00 0.00 85 1019.7
20260906144143 69 37 2.0 7.0 0.00 0.00 0.00 85 1019.6
20260906143943 69 60 3.0 8.0 0.00 0.00 0.00 85 1019.7
20260906143742 68 44 4.0 8.0 0.00 0.00 0.00 85 1019.6
20260906143542 68 49 3.0 8.0 0.00 0.00 0.00 85 1019.6
20260906143342 68 51 3.0 8.0 0.00 0.00 0.00 85 1019.6
20260906143141 68 48 3.0 8.0 0.00 0.00 0.00 85 1019.6
20260906142941 68 44 3.0 8.0 0.00 0.00 0.00 85 1019.6
20260906142741 68 46 3.0 8.0 0.00 0.00 0.00 85 1019.5
20260906142540 68 56 3.0 7.0 0.00 0.00 0.00 85 1019.5
20260906142340 68 40 3.0 10.0 0.00 0.00 0.00 85 1019.5
20260906142140 68 38 3.0 10.0 0.00 0.00 0.00 84 1019.4
20260906141940 68 28 3.0 10.0 0.00 0.00 0.00 84 1019.3
20260906141739 68 55 3.0 10.0 0.00 0.00 0.00 85 1019.3
20260906141539 68 46 3.0 10.0 0.00 0.00 0.00 84 1019.3
20260906141339 68 49 4.0 10.0 0.00 0.00 0.00 84 1019.3
20260906141138 68 52 3.0 10.0 0.00 0.00 0.00 84 1019.3
20260906140938 68 34 3.0 7.0 0.00 0.00 0.00 84 1019.3
20260906140738 68 13 2.0 7.0 0.00 0.00 0.00 84 1019.2
20260906140537 68 29 2.0 6.0 0.00 0.00 0.00 84 1019.1
20260906140337 68 25 2.0 6.0 0.00 0.00 0.00 84 1019.1
20260906140137 68 23 2.0 6.0 0.00 0.00 0.00 84 1019.1
20260906135936 68 45 2.0 6.0 0.00 0.00 0.00 84 1019.1
20260906135736 68 47 2.0 6.0 0.00 0.00 0.00 84 1019.0
20260906135536 68 43 3.0 6.0 0.00 0.00 0.00 84 1019.1
20260906135336 68 44 2.0 6.0 0.00 0.00 0.00 84 1019.1
20260906135135 68 50 2.0 6.0 0.00 0.00 0.00 84 1019.1
20260906134935 68 45 2.0 6.0 0.00 0.00 0.00 84 1019.0
20260906134735 68 52 3.0 6.0 0.00 0.00 0.00 84 1019.0
20260906134534 68 25 3.0 6.0 0.00 0.00 0.00 83 1018.9
20260906134334 68 11 2.0 6.0 0.00 0.00 0.00 84 1019.0
20260906134134 68 24 2.0 6.0 0.00 0.00 0.00 84 1019.0
20260906133933 68 66 3.0 6.0 0.00 0.00 0.00 84 1018.9
20260906133733 68 53 2.0 5.0 0.00 0.00 0.00 84 1018.9
20260906133533 68 32 2.0 5.0 0.00 0.00 0.00 84 1018.9
20260906133332 67 26 1.0 5.0 0.00 0.00 0.00 84 1018.9
20260906133132 67 15 2.0 6.0 0.00 0.00 0.00 84 1018.9
20260906132932 67 37 2.0 6.0 0.00 0.00 0.00 84 1018.9
20260906132731 67 26 1.0 6.0 0.00 0.00 0.00 85 1018.8
20260906132531 67 42 2.0 6.0 0.00 0.00 0.00 85 1018.8
20260906132331 67 23 2.0 6.0 0.00 0.00 0.00 85 1018.9
20260906132131 67 20 2.0 6.0 0.00 0.00 0.00 85 1018.9
20260906131930 67 9 2.0 6.0 0.00 0.00 0.00 85 1018.9
20260906131730 67 22 0.0 5.0 0.00 0.00 0.00 85 1018.9
20260906131530 67 46 1.0 5.0 0.00 0.00 0.00 85 1018.9
20260906131329 66 59 3.0 5.0 0.00 0.00 0.00 85 1019.0
20260906131129 66 36 1.0 4.0 0.00 0.00 0.00 85 1018.9
20260906130929 66 46 1.0 4.0 0.00 0.00 0.00 85 1018.9
20260906130728 66 40 1.0 4.0 0.00 0.00 0.00 85 1018.9
20260906130528 66 43 1.0 3.0 0.00 0.00 0.00 85 1018.9
20260906130328 66 84 1.0 3.0 0.00 0.00 0.00 85 1018.8
20260906130127 66 58 1.0 3.0 0.00 0.00 0.00 85 1018.8
20260906125927 66 20 0.0 3.0 0.00 0.00 0.00 85 1018.9
20260906125727 66 27 0.0 4.0 0.00 0.00 0.00 85 1018.9
20260906125526 66 27 0.0 4.0 0.00 0.00 0.00 86 1018.9
20260906125326 66 57 0.0 4.0 0.00 0.00 0.00 86 1018.9
20260906125126 66 54 2.0 5.0 0.00 0.00 0.00 86 1018.9
20260906124926 66 46 1.0 5.0 0.00 0.00 0.00 87 1018.8
20260906124725 65 67 1.0 5.0 0.00 0.00 0.00 87 1018.9
20260906124525 65 15 1.0 5.0 0.00 0.00 0.00 88 1018.8
20260906124325 65 36 1.0 5.0 0.00 0.00 0.00 88 1018.9
20260906124124 65 26 1.0 5.0 0.00 0.00 0.00 88 1018.9
20260906123924 64 42 1.0 4.0 0.00 0.00 0.00 88 1018.8
20260906123724 64 22 1.0 4.0 0.00 0.00 0.00 88 1018.8
20260906123523 64 53 1.0 4.0 0.00 0.00 0.00 89 1018.8
20260906123323 64 72 1.0 4.0 0.00 0.00 0.00 89 1018.8
20260906123123 64 58 1.0 4.0 0.00 0.00 0.00 88 1018.8
20260906122922 64 40 1.0 4.0 0.00 0.00 0.00 89 1018.7
20260906122722 64 22 0.0 3.0 0.00 0.00 0.00 89 1018.7
20260906122522 64 69 1.0 3.0 0.00 0.00 0.00 89 1018.7
20260906122321 64 73 1.0 4.0 0.00 0.00 0.00 88 1018.7
20260906122121 64 61 1.0 4.0 0.00 0.00 0.00 89 1018.6
20260906121921 64 58 0.0 4.0 0.00 0.00 0.00 89 1018.6
20260906121721 64 58 0.0 5.0 0.00 0.00 0.00 89 1018.6
20260906121520 64 44 1.0 5.0 0.00 0.00 0.00 89 1018.6
20260906121320 64 33 2.0 5.0 0.00 0.00 0.00 89 1018.5
20260906121120 64 28 1.0 5.0 0.00 0.00 0.00 89 1018.6
20260906120919 64 56 1.0 3.0 0.00 0.00 0.00 89 1018.5
20260906120719 64 51 1.0 4.0 0.00 0.00 0.00 89 1018.5
20260906120519 64 57 0.0 4.0 0.00 0.00 0.00 89 1018.4
20260906120318 64 97 0.0 4.0 0.00 0.00 0.00 90 1018.4
20260906120118 64 45 1.0 4.0 0.00 0.00 0.00 90 1018.4
20260906115918 63 29 0.0 4.0 0.00 0.00 0.00 90 1018.4
20260906115717 63 356 0.0 4.0 0.00 0.00 0.00 90 1018.5
20260906115517 63 45 1.0 4.0 0.00 0.00 0.00 90 1018.4
20260906115317 63 44 1.0 4.0 0.00 0.00 0.00 90 1018.4
20260906115116 63 43 1.0 4.0 0.00 0.00 0.00 90 1018.4
20260906114916 63 54 0.0 3.0 0.00 0.00 0.00 90 1018.3
20260906114716 63 46 0.0 3.0 0.00 0.00 0.00 91 1018.4
20260906114516 63 42 0.0 3.0 0.00 0.00 0.00 91 1018.3
20260906114315 62 42 0.0 3.0 0.00 0.00 0.00 91 1018.2
20260906114115 62 39 1.0 3.0 0.00 0.00 0.00 91 1018.2
20260906113915 62 40 1.0 3.0 0.00 0.00 0.00 91 1018.2
20260906113714 62 51 1.0 3.0 0.00 0.00 0.00 91 1018.2
20260906113514 62 66 0.0 3.0 0.00 0.00 0.00 91 1018.2
20260906113314 62 46 1.0 3.0 0.00 0.00 0.00 92 1018.2
20260906113113 62 31 1.0 3.0 0.00 0.00 0.00 92 1018.2
20260906112913 62 20 0.0 2.0 0.00 0.00 0.00 92 1018.1
20260906112713 62 20 0.0 2.0 0.00 0.00 0.00 92 1018.1
20260906112512 62 18 0.0 2.0 0.00 0.00 0.00 92 1018.2
20260906112312 62 18 0.0 2.0 0.00 0.00 0.00 92 1018.1
20260906112112 61 26 0.0 2.0 0.00 0.00 0.00 92 1018.1
20260906111911 61 26 0.0 2.0 0.00 0.00 0.00 92 1018.1
20260906111711 61 34 0.0 2.0 0.00 0.00 0.00 92 1018.1
20260906111511 61 54 0.0 1.0 0.00 0.00 0.00 92 1018.1
20260906111311 61 0 0.0 1.0 0.00 0.00 0.00 92 1018.1
20260906111110 61 55 0.0 1.0 0.00 0.00 0.00 92 1018.0
20260906110910 61 55 0.0 1.0 0.00 0.00 0.00 92 1018.1
20260906110710 61 55 0.0 1.0 0.00 0.00 0.00 92 1018.1
20260906110509 61 55 0.0 1.0 0.00 0.00 0.00 92 1018.1
20260906110309 61 55 0.0 1.0 0.00 0.00 0.00 92 1017.9
20260906110109 61 0 0.0 1.0 0.00 0.00 0.00 92 1018.0
20260906105908 61 55 0.0 1.0 0.00 0.00 0.00 92 1017.9
20260906105708 61 55 0.0 1.0 0.00 0.00 0.00 92 1018.0
20260906105508 61 55 0.0 1.0 0.00 0.00 0.00 92 1018.0
20260906105307 61 55 0.0 1.0 0.00 0.00 0.00 92 1017.9
20260906105107 61 55 0.0 1.0 0.00 0.00 0.00 92 1017.9
20260906104907 61 55 0.0 1.0 0.00 0.00 0.00 92 1017.9
20260906104706 61 55 0.0 1.0 0.00 0.00 0.00 93 1017.8
20260906104506 61 54 0.0 1.0 0.00 0.00 0.00 93 1017.8
20260906104306 61 34 0.0 1.0 0.00 0.00 0.00 93 1017.8
20260906104105 61 346 0.0 1.0 0.00 0.00 0.00 94 1017.8
20260906103905 60 346 0.0 1.0 0.00 0.00 0.00 94 1017.7
20260906103705 60 346 0.0 1.0 0.00 0.00 0.00 94 1017.7
20260906103505 60 346 0.0 0.0 0.00 0.00 0.00 94 1017.7
20260906103304 60 346 0.0 0.0 0.00 0.00 0.00 94 1017.7
20260906103104 60 0 0.0 0.0 0.00 0.00 0.00 94 1017.6
20260906102904 60 0 0.0 0.0 0.00 0.00 0.00 94 1017.6
20260906102703 60 0 0.0 0.0 0.00 0.00 0.00 94 1017.6
20260906102503 60 0 0.0 0.0 0.00 0.00 0.00 94 1017.6
20260906102306 60 0 0.0 0.0 0.00 0.00 0.00 94 1017.5
20260906102102 60 0 0.0 0.0 0.00 0.00 0.00 94 1017.5
20260906101902 60 0 0.0 0.0 0.00 0.00 0.00 94 1017.5
20260906101702 60 0 0.0 0.0 0.00 0.00 0.00 94 1017.5
20260906101501 60 0 0.0 0.0 0.00 0.00 0.00 94 1017.4
20260906101301 60 0 0.0 0.0 0.00 0.00 0.00 94 1017.5
20260906101101 60 0 0.0 0.0 0.00 0.00 0.00 94 1017.4
20260906100901 60 0 0.0 0.0 0.00 0.00 0.00 94 1017.3
20260906100700 60 0 0.0 0.0 0.00 0.00 0.00 94 1017.3
20260906100500 60 0 0.0 0.0 0.00 0.00 0.00 93 1017.3
20260906100300 60 0 0.0 0.0 0.00 0.00 0.00 93 1017.2
20260906100059 60 0 0.0 0.0 0.00 0.00 0.00 93 1017.2
20260906095859 60 0 0.0 0.0 0.00 0.00 0.00 93 1017.2
20260906095659 60 0 0.0 0.0 0.00 0.00 0.00 93 1017.2
20260906095458 60 0 0.0 0.0 0.00 0.00 0.00 93 1017.2
20260906095258 60 0 0.0 0.0 0.00 0.00 0.00 93 1017.2
20260906095058 60 0 0.0 0.0 0.00 0.00 0.00 93 1017.1
20260906094857 60 0 0.0 0.0 0.00 0.00 0.00 92 1017.2
20260906094657 61 0 0.0 0.0 0.00 0.00 0.00 92 1017.1
20260906094457 61 0 0.0 0.0 0.00 0.00 0.00 93 1017.1
20260906094257 61 0 0.0 0.0 0.00 0.00 0.00 93 1017.2
20260906094056 61 0 0.0 1.0 0.00 0.00 0.00 93 1017.2
20260906093856 61 0 0.0 1.0 0.00 0.00 0.00 93 1017.2
20260906093656 61 346 0.0 1.0 0.00 0.00 0.00 93 1017.1
20260906093455 61 346 0.0 1.0 0.00 0.00 0.00 93 1017.1
20260906093255 61 346 0.0 1.0 0.00 0.00 0.00 93 1017.1
20260906093055 61 346 0.0 1.0 0.00 0.00 0.00 93 1017.0
20260906092855 61 346 0.0 1.0 0.00 0.00 0.00 92 1017.0
20260906092654 61 346 0.0 1.0 0.00 0.00 0.00 92 1017.0
20260906092454 61 0 0.0 0.0 0.00 0.00 0.00 92 1016.9
20260906092253 61 0 0.0 1.0 0.00 0.00 0.00 92 1016.9
20260906092053 61 0 0.0 1.0 0.00 0.00 0.00 92 1016.8
20260906091853 61 0 0.0 1.0 0.00 0.00 0.00 92 1016.8
20260906091652 61 346 0.0 1.0 0.00 0.00 0.00 92 1016.8
20260906091452 62 0 0.0 1.0 0.00 0.00 0.00 91 1016.8
20260906091252 62 0 0.0 0.0 0.00 0.00 0.00 91 1016.8
20260906091051 62 0 0.0 0.0 0.00 0.00 0.00 91 1016.8
20260906090851 62 0 0.0 0.0 0.00 0.00 0.00 91 1016.8
20260906090651 62 0 0.0 0.0 0.00 0.00 0.00 91 1016.8
20260906090451 62 0 0.0 0.0 0.00 0.00 0.00 91 1016.8
20260906090250 62 0 0.0 0.0 0.00 0.00 0.00 91 1016.7
20260906090050 62 0 0.0 0.0 0.00 0.00 0.00 91 1016.7
20260906085850 62 0 0.0 1.0 0.00 0.00 0.00 90 1016.7
20260906085649 62 0 0.0 1.0 0.00 0.00 0.00 90 1016.6
20260906085449 62 346 0.0 1.0 0.00 0.00 0.00 90 1016.6
20260906085249 62 346 0.0 1.0 0.00 0.00 0.00 90 1016.6
20260906085048 63 346 0.0 1.0 0.00 0.00 0.00 90 1016.6
20260906084848 63 0 0.0 1.0 0.00 0.00 0.00 90 1016.6
20260906084648 63 0 0.0 1.0 0.00 0.00 0.00 90 1016.6
20260906084447 63 346 0.0 1.0 0.00 0.00 0.00 90 1016.6
20260906084247 63 346 0.0 1.0 0.00 0.00 0.00 90 1016.5
20260906084047 63 0 0.0 1.0 0.00 0.00 0.00 89 1016.5
20260906083846 63 351 0.0 1.0 0.00 0.00 0.00 89 1016.6
20260906083646 63 34 0.0 1.0 0.00 0.00 0.00 89 1016.5
20260906083446 63 53 0.0 1.0 0.00 0.00 0.00 89 1016.6
20260906083246 63 53 0.0 1.0 0.00 0.00 0.00 89 1016.6
20260906083045 64 53 0.0 1.0 0.00 0.00 0.00 89 1016.6
20260906082845 64 53 0.0 1.0 0.00 0.00 0.00 89 1016.6
20260906082645 64 53 0.0 1.0 0.00 0.00 0.00 89 1016.5
20260906082444 64 53 0.0 1.0 0.00 0.00 0.00 89 1016.5
20260906082244 64 53 0.0 2.0 0.00 0.00 0.00 89 1016.4
20260906082044 64 53 0.0 3.0 0.00 0.00 0.00 89 1016.4
20260906081843 64 53 0.0 3.0 0.00 0.00 0.00 89 1016.4
20260906081643 64 53 0.0 3.0 0.00 0.00 0.00 89 1016.4
20260906081443 64 55 0.0 3.0 0.00 0.00 0.00 88 1016.4
20260906081242 64 27 0.0 3.0 0.00 0.00 0.00 88 1016.3
20260906081042 64 27 0.0 3.0 0.00 0.00 0.00 88 1016.4
20260906080842 64 27 0.0 3.0 0.00 0.00 0.00 88 1016.4
20260906080642 64 27 0.0 3.0 0.00 0.00 0.00 88 1016.4
20260906080441 64 29 1.0 3.0 0.00 0.00 0.00 88 1016.3
20260906080241 64 40 1.0 2.0 0.00 0.00 0.00 88 1016.4
20260906080041 64 47 0.0 2.0 0.00 0.00 0.00 88 1016.4
20260906075840 64 25 1.0 3.0 0.00 0.00 0.00 88 1016.3
20260906075640 64 21 1.0 4.0 0.00 0.00 0.00 88 1016.3
20260906075440 64 101 0.0 4.0 0.00 0.00 0.00 88 1016.3
20260906075239 64 63 1.0 4.0 0.00 0.00 0.00 88 1016.2
20260906075039 64 41 1.0 4.0 0.00 0.00 0.00 88 1016.3
20260906074839 64 34 0.0 3.0 0.00 0.00 0.00 88 1016.2
20260906074638 65 24 1.0 3.0 0.00 0.00 0.00 88 1016.3
20260906074438 65 7 0.0 4.0 0.00 0.00 0.00 88 1016.3
20260906074238 65 20 1.0 4.0 0.00 0.00 0.00 88 1016.3
20260906074037 64 18 1.0 4.0 0.00 0.00 0.00 88 1016.3
20260906073837 65 360 0.0 4.0 0.00 0.00 0.00 88 1016.3
20260906073637 65 7 1.0 4.0 0.00 0.00 0.00 88 1016.3
20260906073437 65 34 0.0 4.0 0.00 0.00 0.00 88 1016.3
20260906073236 65 41 0.0 3.0 0.00 0.00 0.00 87 1016.3
20260906073036 65 41 0.0 3.0 0.00 0.00 0.00 87 1016.3
20260906072836 65 48 0.0 3.0 0.00 0.00 0.00 87 1016.4
20260906072635 65 44 1.0 3.0 0.00 0.00 0.00 87 1016.4
20260906072435 65 36 1.0 3.0 0.00 0.00 0.00 87 1016.4
20260906072235 65 19 0.0 4.0 0.00 0.00 0.00 87 1016.3
20260906072034 65 9 1.0 4.0 0.00 0.00 0.00 87 1016.4
20260906071834 65 40 1.0 4.0 0.00 0.00 0.00 87 1016.3
20260906071634 65 40 1.0 4.0 0.00 0.00 0.00 87 1016.3
20260906071433 65 48 1.0 4.0 0.00 0.00 0.00 87 1016.3
20260906071233 65 43 1.0 4.0 0.00 0.00 0.00 87 1016.3
20260906071033 65 26 0.0 3.0 0.00 0.00 0.00 87 1016.2
20260906070833 65 90 0.0 3.0 0.00 0.00 0.00 87 1016.2
20260906070632 65 54 0.0 3.0 0.00 0.00 0.00 87 1016.3
20260906070432 65 49 1.0 4.0 0.00 0.00 0.00 87 1016.3
20260906070232 65 21 0.0 4.0 0.00 0.00 0.00 87 1016.3
20260906070031 66 12 1.0 4.0 0.00 0.00 0.00 87 1016.4
20260906065831 66 22 1.0 4.0 0.00 0.00 0.00 87 1016.4
20260906065631 66 27 1.0 4.0 0.00 0.00 0.00 87 1016.3
20260906065430 66 42 1.0 4.0 0.00 0.00 0.00 87 1016.3
20260906065230 66 44 1.0 3.0 0.00 0.00 0.00 87 1016.3
20260906065030 66 52 1.0 3.0 0.00 0.00 0.00 87 1016.3
20260906064829 66 55 1.0 3.0 0.00 0.00 0.00 87 1016.2
20260906064629 66 53 1.0 4.0 0.00 0.00 0.00 87 1016.3
20260906064429 66 29 1.0 6.0 0.00 0.00 0.00 87 1016.2
20260906064228 66 17 1.0 6.0 0.00 0.00 0.00 87 1016.2
20260906064028 66 23 1.0 6.0 0.00 0.00 0.00 87 1016.2
20260906063828 66 20 2.0 6.0 0.00 0.00 0.00 87 1016.2
20260906063628 66 40 2.0 6.0 0.00 0.00 0.00 87 1016.2
20260906063427 66 34 1.0 4.0 0.00 0.00 0.00 87 1016.2
20260906063227 66 11 1.0 5.0 0.00 0.00 0.00 87 1016.3
20260906063027 66 24 0.0 5.0 0.00 0.00 0.00 87 1016.3
20260906062826 66 36 1.0 5.0 0.00 0.00 0.00 87 1016.3
20260906062626 66 40 2.0 5.0 0.00 0.00 0.00 87 1016.4
20260906062426 66 38 1.0 4.0 0.00 0.00 0.00 87 1016.4
20260906062225 65 30 2.0 4.0 0.00 0.00 0.00 87 1016.3
20260906062025 65 45 1.0 5.0 0.00 0.00 0.00 87 1016.3
20260906061825 65 58 0.0 5.0 0.00 0.00 0.00 87 1016.3
20260906061624 65 46 1.0 5.0 0.00 0.00 0.00 87 1016.3
20260906061424 65 34 1.0 5.0 0.00 0.00 0.00 87 1016.3
20260906061224 65 42 0.0 3.0 0.00 0.00 0.00 87 1016.3
20260906061023 65 10 0.0 3.0 0.00 0.00 0.00 87 1016.3
20260906060823 65 14 1.0 3.0 0.00 0.00 0.00 87 1016.3
20260906060623 65 30 0.0 3.0 0.00 0.00 0.00 87 1016.3
20260906060423 65 33 0.0 3.0 0.00 0.00 0.00 87 1016.3
20260906060222 65 49 1.0 4.0 0.00 0.00 0.00 87 1016.3
20260906060022 66 52 0.0 4.0 0.00 0.00 0.00 87 1016.4
20260906055822 66 54 0.0 5.0 0.00 0.00 0.00 87 1016.3
20260906055621 66 49 1.0 5.0 0.00 0.00 0.00 87 1016.3
20260906055421 66 18 1.0 5.0 0.00 0.00 0.00 87 1016.3
20260906055221 66 4 1.0 5.0 0.00 0.00 0.00 87 1016.2
20260906055020 66 22 2.0 5.0 0.00 0.00 0.00 87 1016.3
20260906054820 66 38 1.0 5.0 0.00 0.00 0.00 87 1016.2
20260906054620 66 70 1.0 3.0 0.00 0.00 0.00 87 1016.3
20260906054419 66 0 0.0 3.0 0.00 0.00 0.00 87 1016.3
20260906054219 66 354 0.0 4.0 0.00 0.00 0.00 87 1016.3
20260906054019 66 32 0.0 4.0 0.00 0.00 0.00 86 1016.2
20260906053819 66 56 1.0 4.0 0.00 0.00 0.00 86 1016.3
20260906053618 66 76 2.0 4.0 0.00 0.00 0.00 87 1016.3
20260906053418 66 65 1.0 4.0 0.00 0.00 0.00 87 1016.3
20260906053218 66 33 2.0 4.0 0.00 0.00 0.00 86 1016.3
20260906053017 66 16 1.0 4.0 0.00 0.00 0.00 86 1016.3
20260906052817 66 34 0.0 6.0 0.00 0.00 0.00 86 1016.3
20260906052617 66 81 0.0 6.0 0.00 0.00 0.00 86 1016.3
20260906052416 66 71 0.0 6.0 0.00 0.00 0.00 86 1016.3
20260906052216 66 47 2.0 6.0 0.00 0.00 0.00 86 1016.4
20260906052016 66 26 2.0 6.0 0.00 0.00 0.00 86 1016.4
20260906051815 66 45 1.0 4.0 0.00 0.00 0.00 86 1016.4
20260906051615 66 70 0.0 6.0 0.00 0.00 0.00 86 1016.3
20260906051415 66 51 1.0 6.0 0.00 0.00 0.00 86 1016.3
20260906051214 66 33 2.0 6.0 0.00 0.00 0.00 86 1016.2
20260906051014 66 43 3.0 6.0 0.00 0.00 0.00 86 1016.1
20260906050814 66 31 2.0 6.0 0.00 0.00 0.00 86 1016.1
20260906050614 66 45 1.0 5.0 0.00 0.00 0.00 86 1016.0
20260906050413 66 30 0.0 5.0 0.00 0.00 0.00 86 1016.0
20260906050213 66 47 1.0 5.0 0.00 0.00 0.00 86 1016.0
20260906050013 66 35 1.0 5.0 0.00 0.00 0.00 86 1016.0
20260906045812 66 65 0.0 3.0 0.00 0.00 0.00 85 1016.0
20260906045612 66 56 1.0 3.0 0.00 0.00 0.00 85 1016.1
20260906045412 66 17 1.0 3.0 0.00 0.00 0.00 85 1016.1
20260906045211 66 13 1.0 4.0 0.00 0.00 0.00 85 1016.1
20260906045011 66 33 1.0 4.0 0.00 0.00 0.00 85 1016.1
20260906044811 66 37 1.0 4.0 0.00 0.00 0.00 85 1016.1
20260906044610 66 47 1.0 4.0 0.00 0.00 0.00 85 1016.1
20260906044410 66 44 1.0 4.0 0.00 0.00 0.00 85 1016.0
20260906044210 66 54 0.0 4.0 0.00 0.00 0.00 85 1016.0
20260906044009 66 45 1.0 4.0 0.00 0.00 0.00 85 1016.0
20260906043809 66 25 1.0 4.0 0.00 0.00 0.00 85 1016.0
20260906043609 66 22 0.0 2.0 0.00 0.00 0.00 85 1016.0
20260906043409 66 23 0.0 2.0 0.00 0.00 0.00 85 1015.9
20260906043208 67 23 0.0 2.0 0.00 0.00 0.00 85 1016.0
20260906043008 67 13 0.0 3.0 0.00 0.00 0.00 85 1016.0
20260906042808 67 10 1.0 3.0 0.00 0.00 0.00 85 1016.0
20260906042607 67 6 0.0 3.0 0.00 0.00 0.00 85 1016.0
20260906042407 67 10 0.0 3.0 0.00 0.00 0.00 85 1016.0
20260906042207 67 10 0.0 3.0 0.00 0.00 0.00 85 1016.0
20260906042006 66 31 0.0 3.0 0.00 0.00 0.00 85 1016.0
20260906041806 67 37 0.0 3.0 0.00 0.00 0.00 85 1015.9
20260906041606 67 36 1.0 4.0 0.00 0.00 0.00 85 1015.9
20260906041405 67 34 0.0 4.0 0.00 0.00 0.00 85 1016.0
20260906041205 67 40 1.0 4.0 0.00 0.00 0.00 85 1016.0
20260906041005 66 40 1.0 4.0 0.00 0.00 0.00 85 1016.0
20260906040805 66 56 1.0 4.0 0.00 0.00 0.00 85 1015.9
20260906040604 66 72 0.0 4.0 0.00 0.00 0.00 85 1015.9
20260906040404 66 72 0.0 4.0 0.00 0.00 0.00 85 1015.8
20260906040204 66 54 1.0 4.0 0.00 0.00 0.00 85 1015.9
20260906040003 66 39 0.0 4.0 0.00 0.00 0.00 85 1015.9
20260906035803 66 41 0.0 2.0 0.00 0.00 0.00 85 1016.0
20260906035603 66 59 0.0 1.0 0.00 0.00 0.00 85 1016.0
20260906035402 66 53 0.0 2.0 0.00 0.00 0.00 84 1016.0
20260906035202 66 42 0.0 2.0 0.00 0.00 0.00 84 1016.0
20260906035002 66 33 0.0 2.0 0.00 0.00 0.00 84 1016.0
20260906034802 66 33 0.0 2.0 0.00 0.00 0.00 84 1016.0
20260906034601 66 33 0.0 2.0 0.00 0.00 0.00 84 1016.0
20260906034401 67 0 0.0 2.0 0.00 0.00 0.00 84 1015.9
20260906034200 67 33 0.0 2.0 0.00 0.00 0.00 84 1015.9
20260906034000 67 33 0.0 2.0 0.00 0.00 0.00 84 1015.9
20260906033800 67 33 0.0 2.0 0.00 0.00 0.00 84 1015.8
20260906033559 67 33 0.0 2.0 0.00 0.00 0.00 84 1015.8
20260906033359 67 33 0.0 2.0 0.00 0.00 0.00 84 1015.8
20260906033159 67 33 0.0 1.0 0.00 0.00 0.00 84 1015.8
20260906032959 67 33 0.0 3.0 0.00 0.00 0.00 83 1015.8
20260906032758 67 33 0.0 3.0 0.00 0.00 0.00 83 1015.8
20260906032558 67 33 0.0 3.0 0.00 0.00 0.00 83 1015.8
20260906032358 67 34 0.0 3.0 0.00 0.00 0.00 83 1015.8
20260906032157 67 44 1.0 3.0 0.00 0.00 0.00 83 1015.8
20260906031957 67 56 1.0 3.0 0.00 0.00 0.00 83 1015.9
20260906031757 67 49 1.0 3.0 0.00 0.00 0.00 83 1015.8
20260906031556 67 54 0.0 3.0 0.00 0.00 0.00 83 1015.8
20260906031356 67 54 0.0 4.0 0.00 0.00 0.00 83 1015.8
20260906031156 67 54 0.0 4.0 0.00 0.00 0.00 83 1016.0
20260906030955 67 25 1.0 4.0 0.00 0.00 0.00 83 1016.0
20260906030755 67 27 1.0 4.0 0.00 0.00 0.00 83 1015.9
20260906030555 67 30 0.0 3.0 0.00 0.00 0.00 83 1015.9
20260906030355 67 117 0.0 3.0 0.00 0.00 0.00 82 1015.9
20260906030154 68 128 1.0 4.0 0.00 0.00 0.00 82 1015.9
20260906025954 68 23 1.0 4.0 0.00 0.00 0.00 82 1015.9
20260906025754 68 23 1.0 4.0 0.00 0.00 0.00 82 1016.0
20260906025553 68 46 1.0 4.0 0.00 0.00 0.00 82 1016.0
20260906025353 68 26 1.0 5.0 0.00 0.00 0.00 82 1015.8
20260906025153 68 347 0.0 5.0 0.00 0.00 0.00 82 1015.9
20260906024952 68 59 1.0 5.0 0.00 0.00 0.00 82 1015.8
20260906024752 68 30 1.0 5.0 0.00 0.00 0.00 82 1015.9
20260906024552 68 67 1.0 5.0 0.00 0.00 0.00 82 1015.8
20260906024351 68 25 1.0 5.0 0.00 0.00 0.00 82 1015.8
20260906024151 68 22 1.0 7.0 0.00 0.00 0.00 82 1015.8
20260906023951 68 37 1.0 7.0 0.00 0.00 0.00 82 1015.8
20260906023750 68 23 1.0 7.0 0.00 0.00 0.00 82 1015.8
20260906023550 68 20 2.0 7.0 0.00 0.00 0.00 81 1015.9
20260906023350 68 29 2.0 7.0 0.00 0.00 0.00 82 1015.8
20260906023150 68 11 1.0 6.0 0.00 0.00 0.00 81 1015.8
20260906022949 68 31 1.0 6.0 0.00 0.00 0.00 81 1015.8
20260906022749 68 32 2.0 6.0 0.00 0.00 0.00 81 1015.8
20260906022549 68 72 2.0 6.0 0.00 0.00 0.00 81 1015.8
20260906022348 68 64 2.0 6.0 0.00 0.00 0.00 81 1015.8
20260906022148 68 37 1.0 6.0 0.00 0.00 0.00 81 1015.8
20260906021948 68 24 1.0 6.0 0.00 0.00 0.00 81 1015.8
20260906021747 68 44 2.0 6.0 0.00 0.00 0.00 81 1015.8
20260906021547 68 56 2.0 6.0 0.00 0.00 0.00 81 1015.7
20260906021347 68 16 2.0 6.0 0.00 0.00 0.00 81 1015.7
20260906021146 68 24 1.0 3.0 0.00 0.00 0.00 81 1015.7
20260906020946 68 15 0.0 4.0 0.00 0.00 0.00 81 1015.7
20260906020746 68 33 0.0 4.0 0.00 0.00 0.00 81 1015.7
20260906020546 68 22 1.0 4.0 0.00 0.00 0.00 81 1015.6
20260906020345 68 12 0.0 4.0 0.00 0.00 0.00 80 1015.6
20260906020145 68 16 1.0 4.0 0.00 0.00 0.00 80 1015.6
20260906015945 68 40 1.0 4.0 0.00 0.00 0.00 80 1015.6
20260906015744 68 39 1.0 3.0 0.00 0.00 0.00 80 1015.7
20260906015544 68 22 1.0 4.0 0.00 0.00 0.00 80 1015.7
20260906015344 68 29 1.0 4.0 0.00 0.00 0.00 80 1015.6
20260906015143 68 30 1.0 4.0 0.00 0.00 0.00 80 1015.5
20260906014943 68 16 1.0 4.0 0.00 0.00 0.00 79 1015.5
20260906014743 68 5 0.0 4.0 0.00 0.00 0.00 79 1015.5
20260906014542 68 27 0.0 3.0 0.00 0.00 0.00 79 1015.4
20260906014342 68 27 0.0 1.0 0.00 0.00 0.00 79 1015.5
20260906014142 68 27 0.0 1.0 0.00 0.00 0.00 78 1015.4
20260906013941 68 27 0.0 1.0 0.00 0.00 0.00 78 1015.4
20260906013741 68 27 0.0 1.0 0.00 0.00 0.00 78 1015.4
20260906013541 68 27 0.0 1.0 0.00 0.00 0.00 78 1015.3
20260906013341 68 27 0.0 1.0 0.00 0.00 0.00 78 1015.4
20260906013140 68 27 0.0 1.0 0.00 0.00 0.00 78 1015.3
20260906012940 68 0 0.0 1.0 0.00 0.00 0.00 78 1015.4
20260906012740 68 0 0.0 1.0 0.00 0.00 0.00 78 1015.3
20260906012539 68 0 0.0 2.0 0.00 0.00 0.00 78 1015.3
20260906012339 68 27 0.0 2.0 0.00 0.00 0.00 78 1015.3
20260906012139 68 27 0.0 2.0 0.00 0.00 0.00 78 1015.3
20260906011938 68 27 0.0 2.0 0.00 0.00 0.00 77 1015.3
20260906011738 69 27 0.0 2.0 0.00 0.00 0.00 77 1015.3
20260906011538 69 27 1.0 2.0 0.00 0.00 0.00 77 1015.4
20260906011337 69 27 1.0 2.0 0.00 0.00 0.00 77 1015.3
20260906011137 69 32 0.0 2.0 0.00 0.00 0.00 77 1015.3
20260906010937 69 25 0.0 2.0 0.00 0.00 0.00 77 1015.3
20260906010736 69 17 1.0 2.0 0.00 0.00 0.00 77 1015.3
20260906010536 69 21 1.0 2.0 0.00 0.00 0.00 76 1015.3
20260906010336 69 16 0.0 2.0 0.00 0.00 0.00 76 1015.2
20260906010136 70 18 0.0 2.0 0.00 0.00 0.00 75 1015.3
20260906005935 70 18 0.0 2.0 0.00 0.00 0.00 75 1015.2
20260906005735 70 18 0.0 2.0 0.00 0.00 0.00 75 1015.3
20260906005535 70 18 0.0 2.0 0.00 0.00 0.00 75 1015.2
20260906005334 70 19 0.0 2.0 0.00 0.00 0.00 74 1015.2
20260906005134 70 20 0.0 2.0 0.00 0.00 0.00 73 1015.1
20260906004934 70 20 0.0 1.0 0.00 0.00 0.00 72 1015.2
20260906004733 70 20 0.0 1.0 0.00 0.00 0.00 72 1015.1
20260906004533 70 20 0.0 1.0 0.00 0.00 0.00 72 1015.1
20260906004333 70 20 0.0 2.0 0.00 0.00 0.00 72 1015.0
20260906004132 70 0 0.0 2.0 0.00 0.00 0.00 72 1015.0
20260906003932 70 0 0.0 2.0 0.00 0.00 0.00 72 1015.0
20260906003732 71 20 0.0 2.0 0.00 0.00 0.00 71 1015.0
20260906003531 71 20 0.0 2.0 0.00 0.00 0.00 71 1015.0
20260906003331 71 20 0.0 1.0 0.00 0.00 0.00 71 1014.9
20260906003131 71 20 0.0 1.0 0.00 0.00 0.00 71 1014.9
20260906002931 71 20 0.0 1.0 0.00 0.00 0.00 70 1015.0
20260906002730 71 20 0.0 1.0 0.00 0.00 0.00 70 1015.0
20260906002530 71 20 0.0 1.0 0.00 0.00 0.00 70 1015.0
20260906002330 71 20 0.0 1.0 0.00 0.00 0.00 70 1015.0
20260906002129 71 20 0.0 1.0 0.00 0.00 0.00 70 1015.0
20260906001929 71 20 0.0 1.0 0.00 0.00 0.00 70 1015.0
20260906001729 71 20 0.0 1.0 0.00 0.00 0.00 70 1014.9
20260906001528 71 20 0.0 1.0 0.00 0.00 0.00 70 1014.9
20260906001328 71 20 0.0 1.0 0.00 0.00 0.00 70 1014.9
20260906001128 71 20 0.0 1.0 0.00 0.00 0.00 70 1014.9
20260906000927 71 20 0.0 1.0 0.00 0.00 0.00 70 1014.9
20260906000727 71 20 0.0 1.0 0.00 0.00 0.00 70 1014.9
20260906000527 71 20 0.0 1.0 0.00 0.00 0.00 70 1014.9
20260906000326 71 20 0.0 1.0 0.00 0.00 0.00 70 1014.9
20260906000126 72 20 0.0 1.0 0.00 0.00 0.00 70 1014.9
20260905235926 72 20 0.0 1.0 0.00 0.00 0.00 69 1014.9
20260905235726 72 20 0.0 1.0 0.00 0.00 0.00 69 1014.9
20260905235525 72 0 0.0 1.0 0.00 0.00 0.00 69 1014.8
20260905235325 72 0 0.0 1.0 0.00 0.00 0.00 68 1014.9
20260905235125 72 20 0.0 1.0 0.00 0.00 0.00 68 1014.8
20260905234924 72 0 0.0 1.0 0.00 0.00 0.00 68 1014.8
20260905234724 73 20 0.0 2.0 0.00 0.00 0.00 67 1014.8
20260905234524 73 20 0.0 2.0 0.00 0.00 0.00 67 1014.8
20260905234323 73 20 0.0 2.0 0.00 0.00 0.00 67 1014.8
20260905234123 73 19 0.0 3.0 0.00 0.00 0.00 67 1014.8
20260905233923 73 32 1.0 3.0 0.00 0.00 0.00 67 1014.7
20260905233722 73 42 1.0 3.0 0.00 0.00 0.00 67 1014.8
20260905233522 73 29 1.0 3.0 0.00 0.00 0.00 67 1014.7
20260905233322 73 27 0.0 2.0 0.00 0.00 0.00 68 1014.7
20260905233122 73 27 0.0 2.0 0.00 0.00 0.00 67 1014.8
20260905232921 73 27 0.0 2.0 0.00 0.00 0.00 67 1014.8
20260905232721 73 28 0.0 2.0 0.00 0.00 0.00 66 1014.7
20260905232521 73 27 0.0 2.0 0.00 0.00 0.00 66 1014.8
20260905232320 73 25 0.0 1.0 0.00 0.00 0.00 66 1014.8
20260905232120 74 0 0.0 1.0 0.00 0.00 0.00 66 1014.7
20260905231920 74 25 0.0 1.0 0.00 0.00 0.00 66 1014.7
20260905231719 74 25 0.0 1.0 0.00 0.00 0.00 66 1014.7
20260905231519 74 0 0.0 1.0 0.00 0.00 0.00 65 1014.7
20260905231319 74 0 0.0 1.0 0.00 0.00 0.00 65 1014.7
20260905231118 74 25 0.0 1.0 0.00 0.00 0.00 65 1014.7
20260905230918 74 25 0.0 2.0 0.00 0.00 0.00 64 1014.7
20260905230718 74 25 0.0 2.0 0.00 0.00 0.00 64 1014.7
20260905230517 74 25 0.0 2.0 0.00 0.00 0.00 64 1014.7
20260905230317 75 26 0.0 2.0 0.00 0.00 0.00 64 1014.7
20260905230117 75 32 0.0 3.0 0.00 0.00 0.00 64 1014.8
20260905225917 75 37 1.0 3.0 0.00 0.00 0.00 64 1014.8
20260905225716 75 38 1.0 3.0 0.00 0.00 0.00 64 1014.8
20260905225516 75 33 1.0 3.0 0.00 0.00 0.00 64 1014.7
20260905225316 75 24 1.0 3.0 0.00 0.00 0.00 64 1014.7
20260905225115 75 16 0.0 3.0 0.00 0.00 0.00 64 1014.7
20260905224915 75 20 1.0 2.0 0.00 0.00 0.00 64 1014.7
20260905224715 75 16 1.0 3.0 0.00 0.00 0.00 63 1014.7
20260905224514 75 10 1.0 3.0 0.00 0.00 0.00 63 1014.6
20260905224314 76 21 1.0 4.0 0.00 0.00 0.00 63 1014.6
20260905224114 76 32 1.0 4.0 0.00 0.00 0.00 63 1014.6
20260905223913 76 40 0.0 4.0 0.00 0.00 0.00 63 1014.6
20260905223713 76 22 1.0 4.0 0.00 0.00 0.00 63 1014.6
20260905223513 76 10 2.0 4.0 0.00 0.00 0.00 63 1014.7
20260905223312 76 332 1.0 3.0 0.00 0.00 0.00 63 1014.6
20260905223112 76 46 1.0 4.0 0.00 0.00 0.00 63 1014.7
20260905222912 76 89 0.0 5.0 0.00 0.00 0.00 63 1014.7
20260905222712 76 91 0.0 5.0 0.00 0.00 0.00 63 1014.6
20260905222511 76 41 1.0 5.0 0.00 0.00 0.00 62 1014.6
20260905222311 76 48 2.0 5.0 0.00 0.00 0.00 62 1014.7
20260905222111 76 24 1.0 5.0 0.00 0.00 0.00 62 1014.5
20260905221910 77 329 1.0 5.0 0.00 0.00 0.00 62 1014.6
20260905221710 77 38 2.0 5.0 0.00 0.00 0.00 61 1014.6
20260905221510 77 36 1.0 5.0 0.00 0.00 0.00 61 1014.5
20260905221309 77 30 2.0 5.0 0.00 0.00 0.00 60 1014.6
20260905221109 78 39 2.0 5.0 0.00 0.00 0.00 60 1014.6
20260905220909 78 351 1.0 4.0 0.00 0.00 0.00 60 1014.6
20260905220708 79 332 0.0 3.0 0.00 0.00 0.00 60 1014.5
20260905220508 78 327 0.0 3.0 0.00 0.00 0.00 60 1014.6
20260905220308 78 316 1.0 3.0 0.00 0.00 0.00 60 1014.6
20260905220108 78 286 0.0 3.0 0.00 0.00 0.00 60 1014.6
20260905215907 78 292 1.0 3.0 0.00 0.00 0.00 59 1014.6
20260905215707 78 6 0.0 3.0 0.00 0.00 0.00 60 1014.6
20260905215507 78 22 0.0 3.0 0.00 0.00 0.00 60 1014.6
20260905215306 78 24 1.0 3.0 0.00 0.00 0.00 60 1014.6
20260905215106 77 358 1.0 3.0 0.00 0.00 0.00 60 1014.6
20260905214906 77 337 1.0 4.0 0.00 0.00 0.00 61 1014.6
20260905214705 77 24 1.0 4.0 0.00 0.00 0.00 61 1014.6
20260905214505 77 20 2.0 4.0 0.00 0.00 0.00 60 1014.6
20260905214305 77 23 1.0 6.0 0.00 0.00 0.00 60 1014.6
20260905214104 77 17 1.0 6.0 0.00 0.00 0.00 60 1014.7
20260905213904 77 37 1.0 7.0 0.00 0.00 0.00 61 1014.7
20260905213704 77 66 1.0 7.0 0.00 0.00 0.00 61 1014.6
20260905213503 77 39 2.0 7.0 0.00 0.00 0.00 61 1014.7
20260905213303 77 47 3.0 7.0 0.00 0.00 0.00 61 1014.6
20260905213103 77 42 3.0 7.0 0.00 0.00 0.00 61 1014.5
20260905212903 77 28 2.0 7.0 0.00 0.00 0.00 60 1014.6
20260905212702 78 22 2.0 5.0 0.00 0.00 0.00 60 1014.6
20260905212502 78 48 2.0 5.0 0.00 0.00 0.00 60 1014.6
20260905212305 78 28 2.0 5.0 0.00 0.00 0.00 60 1014.6
20260905212101 78 29 1.0 7.0 0.00 0.00 0.00 60 1014.6
20260905211901 78 33 2.0 7.0 0.00 0.00 0.00 60 1014.6
20260905211701 78 33 2.0 7.0 0.00 0.00 0.00 60 1014.6
20260905211500 78 34 2.0 7.0 0.00 0.00 0.00 60 1014.5
20260905211300 79 22 2.0 7.0 0.00 0.00 0.00 59 1014.4
20260905211100 79 4 1.0 7.0 0.00 0.00 0.00 58 1014.4
20260905210859 79 29 2.0 7.0 0.00 0.00 0.00 59 1014.4
20260905210659 79 49 3.0 7.0 0.00 0.00 0.00 59 1014.5
20260905210459 79 46 2.0 7.0 0.00 0.00 0.00 59 1014.5
20260905210258 79 16 1.0 6.0 0.00 0.00 0.00 60 1014.4
20260905210058 79 4 1.0 6.0 0.00 0.00 0.00 61 1014.4
20260905205858 78 16 2.0 6.0 0.00 0.00 0.00 60 1014.4
20260905205658 79 30 2.0 6.0 0.00 0.00 0.00 59 1014.3
20260905205457 79 27 2.0 6.0 0.00 0.00 0.00 59 1014.3
20260905205257 80 15 2.0 6.0 0.00 0.00 0.00 57 1014.3
20260905205057 80 37 2.0 8.0 0.00 0.00 0.00 57 1014.3
20260905204856 80 45 3.0 8.0 0.00 0.00 0.00 56 1014.3
20260905204656 81 354 2.0 8.0 0.00 0.00 0.00 57 1014.3
20260905204456 80 11 3.0 8.0 0.00 0.00 0.00 58 1014.3
20260905204255 80 43 4.0 8.0 0.00 0.00 0.00 57 1014.3
20260905204055 81 17 2.0 8.0 0.00 0.00 0.00 57 1014.3
20260905203855 81 27 0.0 5.0 0.00 0.00 0.00 57 1014.3
20260905203654 80 27 0.0 6.0 0.00 0.00 0.00 58 1014.3
20260905203454 80 33 1.0 6.0 0.00 0.00 0.00 58 1014.3
20260905203254 80 27 2.0 6.0 0.00 0.00 0.00 57 1014.3
20260905203054 81 15 2.0 6.0 0.00 0.00 0.00 58 1014.3
20260905202853 81 39 2.0 5.0 0.00 0.00 0.00 57 1014.3
20260905202653 81 26 1.0 4.0 0.00 0.00 0.00 57 1014.2
20260905202252 80 56 0.0 5.0 0.00 0.00 0.00 58 1014.2
20260905202052 80 76 1.0 5.0 0.00 0.00 0.00 58 1014.2
20260905201852 80 39 1.0 5.0 0.00 0.00 0.00 57 1014.3
20260905201651 79 352 1.0 5.0 0.00 0.00 0.00 58 1014.3
20260905201451 79 39 2.0 5.0 0.00 0.00 0.00 58 1014.3
20260905201251 79 45 2.0 5.0 0.00 0.00 0.00 59 1014.4
20260905201050 79 36 2.0 4.0 0.00 0.00 0.00 60 1014.3
20260905200850 78 21 1.0 3.0 0.00 0.00 0.00 59 1014.4
20260905200650 78 272 1.0 4.0 0.00 0.00 0.00 61 1014.4
20260905200449 78 314 1.0 5.0 0.00 0.00 0.00 60 1014.3
20260905200249 78 14 0.0 5.0 0.00 0.00 0.00 61 1014.4
20260905200049 78 30 1.0 5.0 0.00 0.00 0.00 60 1014.4
20260905195849 78 48 2.0 5.0 0.00 0.00 0.00 60 1014.4
20260905195648 79 35 1.0 5.0 0.00 0.00 0.00 59 1014.3
20260905195448 79 40 1.0 6.0 0.00 0.00 0.00 59 1014.4
20260905195248 79 58 0.0 7.0 0.00 0.00 0.00 59 1014.3
20260905195047 79 59 0.0 8.0 0.00 0.00 0.00 59 1014.3
20260905194847 79 60 1.0 8.0 0.00 0.00 0.00 59 1014.3
20260905194647 79 60 3.0 8.0 0.00 0.00 0.00 59 1014.4
20260905194446 79 67 2.0 8.0 0.00 0.00 0.00 58 1014.5
20260905194246 79 56 2.0 8.0 0.00 0.00 0.00 60 1014.4
20260905194046 79 37 3.0 8.0 0.00 0.00 0.00 59 1014.4
20260905193845 78 24 0.0 5.0 0.00 0.00 0.00 61 1014.4
20260905193645 78 70 0.0 3.0 0.00 0.00 0.00 61 1014.4
20260905193445 77 58 1.0 5.0 0.00 0.00 0.00 61 1014.4
20260905193244 77 51 1.0 5.0 0.00 0.00 0.00 61 1014.4
20260905193044 77 54 1.0 5.0 0.00 0.00 0.00 60 1014.4
20260905192844 77 68 1.0 5.0 0.00 0.00 0.00 61 1014.5
20260905192644 78 66 2.0 5.0 0.00 0.00 0.00 60 1014.5
20260905192443 78 65 1.0 5.0 0.00 0.00 0.00 60 1014.6
20260905192243 78 46 2.0 5.0 0.00 0.00 0.00 60 1014.6
20260905192043 78 67 1.0 7.0 0.00 0.00 0.00 59 1014.6
20260905191842 79 34 2.0 7.0 0.00 0.00 0.00 59 1014.6
20260905191642 79 33 3.0 7.0 0.00 0.00 0.00 58 1014.6
20260905191442 80 34 4.0 8.0 0.00 0.00 0.00 58 1014.6
20260905191241 80 34 3.0 8.0 0.00 0.00 0.00 57 1014.6
20260905191041 81 330 2.0 8.0 0.00 0.00 0.00 57 1014.6
20260905190841 81 355 3.0 8.0 0.00 0.00 0.00 56 1014.6